Location: Fontevrault
(47.1823°N, 0.0493°E)
Time: 04:03:06
(UTC+00:00)

Uosat 12 SS-18 rocket - Pass Details

Date: 31 October 2021
Orbit: 579 x 1405 km, 64.6° (Epoch: 01 December)

Event Time Altitude Azimuth Distance (km) Brightness Sun altitude
Rises 18:46:17 0° 309° (NW) 3,579 8.8 -21.1°
Reaches altitude 10° 18:49:29 10° 327° (NNW) 2,788 7.8 -21.7°
Maximum altitude 18:54:12 20° 12° (NNE) 2,360 6.9 -22.5°
Enters shadow 18:56:41 17° 36° (NE) 2,617 6.9 -22.9°
